Weather History for Newport Airport, OR

Change the Weather History Date:

Saturday, April 26, 2014

  Actual Average Record
Temperature  
Mean Temperature 44 °F -  
Max Temperature 53 °F 54 °F 78 °F (2004)
Min Temperature 35 °F 43 °F 35 °F (2014)
Degree Days  
Heating Degree Days 21    
Moisture  
Dew Point 42 °F    
Average Humidity 86    
Maximum Humidity 100    
Minimum Humidity 67    
Precipitation  
Precipitation 0.14 in - - ()
Sea Level Pressure  
Sea Level Pressure 29.87 in    
Wind  
Wind Speed 8 mph (South)    
Max Wind Speed 26 mph    
Max Gust Speed 41 mph    
Visibility 8 miles    
Events Rain    
Averages and records for this station are not official NWS values.
T = Trace of Precipitation, MM = Missing Value Source: NWS Daily Summary

Daily Weather History Graph

Daily Weather History Graph

Search for Another Location

Airport:

Trip Planner

Search our weather history database for the weather conditions in past years. The results will help you decide how hot, cold, wet, or windy it might be!

Date:

Astronomy

Apr. 26, 2014 Rise Set
Actual Time 6:13 AM PDT 8:14 PM PDT
Civil Twilight 5:42 AM PDT 8:46 PM PDT
Nautical Twilight 5:03 AM PDT 9:25 PM PDT
Astronomical Twilight 4:21 AM PDT 10:08 PM PDT
Moon 4:48 AM PDT (4/26) 5:43 PM PDT (4/26)
Length of Visible Light 15h 04m
Length of Day
14h 00m
Waning Crescent, 7% of the Moon is Illuminated
Apr 26
Waning Crescent
Apr 28
New
May 6
First Quarter
May 14
Full
May 21
Last Quarter

Hourly Weather History & Observations

Time (PDT) Temp. Windchill Dew Point Humidity Pressure Visibility Wind Dir Wind Speed Gust Speed Precip Events Conditions
12:15 AM 39.2 °F - 37.4 °F 93% 29.94 in 10.0 mi Calm Calm - N/A   Clear
12:35 AM 37.4 °F - 37.4 °F 100% 29.94 in 10.0 mi Calm Calm - N/A   Clear
12:55 AM 37.4 °F - 35.6 °F 93% 29.94 in 10.0 mi Calm Calm - N/A   Clear
1:15 AM 37.4 °F - 37.4 °F 100% 29.95 in 10.0 mi Calm Calm - N/A   Mostly Cloudy
1:35 AM 37.4 °F - 37.4 °F 100% 29.95 in 10.0 mi Calm Calm - N/A   Scattered Clouds
1:55 AM 37.4 °F - 35.6 °F 93% 29.94 in 10.0 mi Calm Calm - N/A   Clear
2:15 AM 37.4 °F - 35.6 °F 93% 29.94 in 10.0 mi Calm Calm - N/A   Clear
2:35 AM 37.4 °F 34.9 °F 35.6 °F 93% 29.93 in 10.0 mi East 3.5 mph - N/A   Clear
2:55 AM 35.6 °F 32.8 °F 35.6 °F 100% 29.93 in 10.0 mi East 3.5 mph - N/A   Clear
3:15 AM 35.6 °F - 35.6 °F 100% 29.93 in 10.0 mi Calm Calm - N/A   Scattered Clouds
3:35 AM 37.4 °F - 35.6 °F 93% 29.93 in 10.0 mi Calm Calm - N/A   Mostly Cloudy
3:55 AM 41.0 °F 35.2 °F 39.2 °F 93% 29.93 in 4.0 mi SSE 9.2 mph 17.3 mph 0.02 in Rain Rain
4:15 AM 41.0 °F 37.1 °F 41.0 °F 100% 29.93 in 10.0 mi SE 5.8 mph - N/A Rain Light Rain
4:35 AM 41.0 °F 38.0 °F 39.2 °F 93% 29.92 in 10.0 mi SE 4.6 mph - N/A   Mostly Cloudy
4:55 AM 41.0 °F 39.0 °F 39.2 °F 93% 29.93 in 10.0 mi East 3.5 mph - N/A   Mostly Cloudy
5:15 AM 41.0 °F 39.0 °F 39.2 °F 93% 29.93 in 10.0 mi SE 3.5 mph - N/A   Overcast
5:35 AM 41.0 °F 39.0 °F 39.2 °F 93% 29.92 in 10.0 mi SE 3.5 mph - N/A   Scattered Clouds
5:55 AM 39.2 °F 35.9 °F 37.4 °F 93% 29.92 in 10.0 mi ESE 4.6 mph - N/A   Clear
6:15 AM 39.2 °F 35.0 °F 37.4 °F 93% 29.92 in 10.0 mi East 5.8 mph - N/A   Clear
6:35 AM 39.2 °F 35.0 °F 37.4 °F 93% 29.92 in 10.0 mi ESE 5.8 mph - N/A   Scattered Clouds
6:55 AM 41.0 °F - 39.2 °F 93% 29.93 in 10.0 mi Calm Calm - N/A   Scattered Clouds
7:15 AM 41.0 °F 38.0 °F 41.0 °F 100% 29.92 in 10.0 mi ESE 4.6 mph - N/A   Scattered Clouds
7:35 AM 42.8 °F 40.1 °F 41.0 °F 93% 29.92 in 10.0 mi ESE 4.6 mph - 0.01 in   Mostly Cloudy
7:55 AM 42.8 °F 39.3 °F 41.0 °F 93% 29.91 in 10.0 mi SE 5.8 mph - 0.01 in   Scattered Clouds
8:15 AM 44.6 °F 40.7 °F 42.8 °F 93% 29.91 in 10.0 mi SE 6.9 mph - N/A   Clear
8:35 AM 46.4 °F 43.5 °F 42.8 °F 87% 29.91 in 10.0 mi SE 5.8 mph - N/A   Clear
8:55 AM 46.4 °F 42.4 °F 42.8 °F 87% 29.90 in 10.0 mi SSE 8.1 mph - N/A   Clear
9:15 AM 48.2 °F - 42.8 °F 82% 29.90 in 10.0 mi SSE 9.2 mph - N/A   Scattered Clouds
9:35 AM 50.0 °F - 42.8 °F 76% 29.90 in 10.0 mi South 10.4 mph - N/A   Mostly Cloudy
9:55 AM 50.0 °F - 42.8 °F 76% 29.90 in 10.0 mi South 10.4 mph - N/A   Mostly Cloudy
10:15 AM 50.0 °F - 42.8 °F 76% 29.89 in 10.0 mi South 13.8 mph 24.2 mph N/A   Scattered Clouds
10:35 AM 51.8 °F - 42.8 °F 71% 29.89 in 10.0 mi SSW 16.1 mph 23.0 mph N/A   Mostly Cloudy
10:55 AM 51.8 °F - 42.8 °F 71% 29.89 in 10.0 mi SSW 18.4 mph 23.0 mph N/A   Overcast
11:15 AM 51.8 °F - 42.8 °F 71% 29.90 in 10.0 mi SSW 13.8 mph - N/A   Overcast
11:35 AM 51.8 °F - 42.8 °F 71% 29.89 in 10.0 mi SSW 20.7 mph 25.3 mph N/A   Mostly Cloudy
11:55 AM 51.8 °F - 41.0 °F 67% 29.89 in 10.0 mi South 23.0 mph 26.5 mph N/A   Mostly Cloudy
12:15 PM 51.8 °F - 42.8 °F 71% 29.89 in 10.0 mi SSW 20.7 mph 33.4 mph N/A   Overcast
12:35 PM 51.8 °F - 42.8 °F 71% 29.88 in 7.0 mi SSW 17.3 mph 27.6 mph N/A   Overcast
12:55 PM 51.8 °F - 42.8 °F 71% 29.88 in 10.0 mi South 19.6 mph 31.1 mph N/A   Overcast
1:15 PM 51.8 °F - 42.8 °F 71% 29.88 in 10.0 mi SSW 18.4 mph 25.3 mph N/A   Mostly Cloudy
1:35 PM 53.6 °F - 42.8 °F 67% 29.88 in 10.0 mi SSW 21.9 mph 29.9 mph N/A   Mostly Cloudy
1:55 PM 51.8 °F - 42.8 °F 71% 29.88 in 10.0 mi South 25.3 mph 33.4 mph N/A   Overcast
2:15 PM 51.8 °F - 44.6 °F 76% 29.87 in 10.0 mi SSW 23.0 mph 32.2 mph N/A   Overcast
2:35 PM 51.8 °F - 42.8 °F 71% 29.87 in 10.0 mi SSW 24.2 mph 34.5 mph N/A   Overcast
2:55 PM 51.8 °F - 42.8 °F 71% 29.87 in 7.0 mi South 19.6 mph 29.9 mph N/A   Light Drizzle
3:15 PM 51.8 °F - 42.8 °F 71% 29.86 in 10.0 mi SSW 19.6 mph 27.6 mph N/A   Overcast
3:35 PM 50.0 °F - 44.6 °F 82% 29.85 in 7.0 mi South 15.0 mph 29.9 mph N/A Rain Light Rain
3:55 PM 50.0 °F - 44.6 °F 82% 29.85 in 10.0 mi South 17.3 mph 28.8 mph N/A Rain Light Rain
4:15 PM 48.2 °F - 42.8 °F 82% 29.84 in 7.0 mi South 25.3 mph 34.5 mph N/A Rain Light Rain
4:35 PM 50.0 °F - 44.6 °F 82% 29.83 in 7.0 mi SSW 21.9 mph 28.8 mph N/A Rain Light Rain
4:55 PM 50.0 °F - 44.6 °F 82% 29.83 in 7.0 mi South 25.3 mph 40.3 mph N/A Rain Light Rain
5:15 PM 48.2 °F - 42.8 °F 82% 29.82 in 7.0 mi South 21.9 mph 34.5 mph N/A Rain Light Rain
5:35 PM 48.2 °F - 41.0 °F 76% 29.81 in 7.0 mi South 24.2 mph 41.4 mph N/A Rain Light Rain
5:55 PM 46.4 °F 37.7 °F 42.8 °F 87% 29.80 in 5.0 mi South 26.5 mph 40.3 mph 0.01 in Rain Light Rain
6:15 PM 46.4 °F 39.5 °F 42.8 °F 87% 29.80 in 10.0 mi South 17.3 mph 29.9 mph N/A Rain Light Rain
6:35 PM 46.4 °F 39.0 °F 42.8 °F 87% 29.79 in 4.0 mi South 19.6 mph 31.1 mph 0.01 in Rain Rain
7:15 PM 46.4 °F 37.7 °F 44.6 °F 93% 29.78 in 3.0 mi South 26.5 mph 35.7 mph 0.01 in Rain Rain
7:35 PM 46.4 °F 39.0 °F 44.6 °F 93% 29.77 in 3.0 mi South 19.6 mph 32.2 mph 0.02 in Rain Light Rain
7:55 PM 46.4 °F 38.1 °F 42.8 °F 87% 29.78 in 4.0 mi South 24.2 mph 35.7 mph 0.02 in Rain Rain
8:15 PM 44.6 °F 36.9 °F 42.8 °F 93% 29.77 in 4.0 mi South 18.4 mph 28.8 mph 0.01 in Rain Light Rain
8:35 PM 44.6 °F 37.4 °F 42.8 °F 93% 29.77 in 5.0 mi South 16.1 mph 27.6 mph 0.01 in Rain Rain
8:55 PM 44.6 °F 37.8 °F 42.8 °F 93% 29.77 in 10.0 mi South 15.0 mph 26.5 mph 0.01 in Rain Rain
9:15 PM 44.6 °F 37.8 °F 42.8 °F 93% 29.77 in 10.0 mi South 15.0 mph 21.9 mph N/A Rain Light Rain
9:35 PM 46.4 °F 38.5 °F 44.6 °F 93% 29.76 in 5.0 mi South 21.9 mph 28.8 mph 0.01 in Rain Light Rain
9:55 PM 46.4 °F 38.3 °F 44.6 °F 93% 29.77 in 7.0 mi South 23.0 mph 28.8 mph 0.02 in Rain Light Rain
10:15 PM 46.4 °F 38.3 °F 44.6 °F 93% 29.77 in 7.0 mi South 23.0 mph 34.5 mph N/A   Overcast
10:35 PM 48.2 °F - 46.4 °F 93% 29.78 in 7.0 mi SW 13.8 mph 32.2 mph N/A Rain Light Rain
10:55 PM 46.4 °F 42.4 °F 44.6 °F 93% 29.79 in 7.0 mi West 8.1 mph - 0.01 in Rain Light Rain
11:15 PM 46.4 °F 42.9 °F 44.6 °F 93% 29.80 in 7.0 mi WSW 6.9 mph - N/A   Overcast
11:35 PM 46.4 °F 42.4 °F 44.6 °F 93% 29.80 in 5.0 mi SW 8.1 mph - 0.01 in Rain Rain
11:55 PM 46.4 °F 42.9 °F 44.6 °F 93% 29.80 in 4.0 mi SW 6.9 mph - 0.03 in Rain Rain